SL-3 DEB, 15769

Orbit data source: Space-Track

SL-3 DEB, 15769 is space debris in LEO originally from a launch on Thu, 14 May 1981 UTC launched from the Plesetsk Missile And Space Complex (PKMTR). Debris objects in space refer to the collection of defunct objects orbiting the Earth. Examples of debris include non-operational satellites, rocket bodies, and fragments generated from explosions, collisions, or faulty payload assembly.

Loading next visibility...
Identifier
15769, 1981-043C
Orbit
LEO
Country
Flag of CISCIS
Related business
Manufacturer
Unknown
Mission
Spacecraft
Bus & Motor
Unknown
Mass
Unknown
Launch date (UTC)
1981-05-14 (44 years ago)
Launch vehicle
Unknown
Launch site
Plesetsk Missile And Space Complex (PKMTR)
Object type
Payload
Rocket body
Debris
Shape & HBR
Unknown shape, 0.1 m
Radar Cross Section
Small (<0.1 m²)

Expand to show TLE details & history
Last TLE update: 10 hours ago

TLE from 10 hours ago
0 SL-3 DEB
1 15769U 81043C   25311.07508128  .00000075  00000-0  36840-4 0  9994
2 15769  81.2784  45.4247 0060521 193.4728 166.4829 14.07216705123346
Epoch: 2025-11-07T01:48Z
TLE epoch observation values (Epoch: 2025-11-07T01:48:07.022Z)
Latitude
-0.00005°
Longitude
-28.12882°
Altitude
914.476 km
Speed
7.373 km/s
True Right ascension
03h 01m 41s
True Declination
0° 00' 00"
Sunlit
Object was in full shadow at epoch
Visualization orbit readout
Latitude
Unknown
Longitude
Unknown
Altitude
Unknown
Speed
Unknown
Apparent Right ascension
Unknown
Apparent Declination
Unknown
Sunlit
N/A
Visualization observer readout
Local Sidereal Time
08:07:56
Azimuth
Unknown
Elevation
Unknown
Doppler factor
Unknown
Orbital elements
Apogee altitude
909.931 km
Perigee altitude
822.245 km
Semi-major axis
7,244.225 km
Eccentricity
0.00605
Inclination
81.2784°
RAAN
45.4247°
Arg. of periapsis
193.4728°
True anomaly
166.64382°
Mean anomaly
166.4829°
Eccentric anomaly
166.56348°
Mean motion
3.5201 °/min
Orbital period
102.27 mins
BSTAR
0.00003684
Loading maneuver chart data...
Computing Atmospheric mass density...
Loading historical data...
Loading historical data...
Loading historical data...
Loading historical data...
Loading historical data...
Loading historical data...
Loading historical data...

Documentation

Showing up to 5 results
|